STARLINK-4106

operational
NORAD ID: 53145 Int'l Des: 2022-083 Owner: SPXS Country: US Constellation: starlink
LEOCIRCULAR

About STARLINK-4106

Description loading...

Live Position

Loading 3D Globe...

Upcoming Passes

Altitude History

Altitude vs Time

uPlot chart will show altitude changes over time

Two-Line Element Set

1 53145U 22083P 25251.34150573 .00003262 00000-0 22291-3 0 9998
2 53145 53.2170 272.7138 0001304 96.7338 263.3803 15.08846992173695
Epoch: Sep 8, 2025 • Age: 19 hours

Current Status

Altitude 546.6 km
Velocity 7.59 km/s
Sub-Earth Point -22.42°S, 144.35°W
Launch Date Jul 17, 2022
Age 3.1 years
Type internet

Technical Details

Classification Payload
Mass 297.00 kg
Dry Mass 275.00 kg
Total Mass 297.00 kg
Length 0.20 m
Diameter 2.80 m
Span 9.00 m
Shape Box + pan
Manufacturer SPXS
Bus Type Starlink
Phase Status In Orbit
Owner/State SPXS/US

Large Constellations

Loading constellations...